Meteo Giornale » Osservazioni meteo Slovacchia » Bratislava Ivanka

ore: 05:00 - Osservazioni Meteo Bratislava Ivanka
Lat. 48° 12' N Lon. 17° 12' E Alt. 133 metri s.l.m.

sereno Europe/Bratislava

18 °C

Sereno

Temp. 24 Ore

17 °C

25 °C

Nord-Ovest

14.8 Km/h

Dew point 12 °C

Umidità 67 %

Visibilità  10 Km

Il sole sorge alle ore 04:55

Il sole tramonta alle ore 20:55

Data e Ora Cielo e Fenomeni T °C DP °C Um. % Pres. hPa Vis. km Vento km/h
Oggi h: 05:00 sereno Sereno 18 12 67 1018 10 NO 14.8
Oggi h: 04:30 sereno Sereno 18 12 67 1018 10 N/NO 11.1
Oggi h: 04:00 sereno Sereno 18 13 72 1018 10 NO 14.8
Oggi h: 03:30 sereno Sereno 18 12 67 1018 10 N/NO 16.7
Oggi h: 03:00 sereno Sereno 18 12 67 1018 10 N 3.7
Oggi h: 02:30 sereno Sereno 17 12 72 1018 10 N 5.5
Oggi h: 02:00 sereno Sereno 17 13 77 1018 10 N 5.5
Oggi h: 01:30 sereno Sereno 18 13 72 1018 10 N 5.5
Oggi h: 01:00 sereno Sereno 19 13 68 1018 10 O/NO 7.4
Oggi h: 00:30 sereno Sereno 18 13 72 1018 10 N 5.5
Oggi h: 00:00 sereno Sereno 19 13 68 1017 10 N/NO 9.3
Ieri h: 23:30 sereno Sereno 19 12 63 1017 10 N 5.5
Ieri h: 23:00 sereno Sereno 19 12 63 1017 10 N 3.7
Ieri h: 22:30 sereno Sereno 19 12 63 1017 10 N 9.3
Ieri h: 22:00 sereno Sereno 20 12 59 1017 10 N/NO 14.8
Ieri h: 21:30 sereno Sereno 21 11 52 1017 10 NO 11.1
Ieri h: 21:00 sereno Sereno 22 12 53 1016 10 NO 13
Ieri h: 20:30 sereno Sereno 23 11 46 1016 10 NO 16.7
Ieri h: 20:00 sereno Sereno 24 12 47 1015 10 N/NO 18.5
Ieri h: 19:30 sereno Sereno 24 13 50 1015 10 N/NO 22.2
Ieri h: 19:00 sereno Sereno 25 12 44 1015 10 N/NO 24
Ieri h: 18:30 sereno Sereno 25 12 44 1014 10 N/NO 18.5
Ieri h: 18:00 sereno Sereno 25 13 47 1014 10 N/NO 20.3
Ieri h: 17:30 sereno Sereno 25 12 44 1014 10 N/NO 22.2
Ieri h: 17:00 poco_nuvoloso Poco Nuvoloso 25 13 47 1014 10 N/NO 14.8
Ieri h: 16:30 poco_nuvoloso Poco Nuvoloso 24 12 47 1015 10 NO 20.3
Ieri h: 16:00 poco_nuvoloso Poco Nuvoloso 24 11 43 1014 10 NO 24
Ieri h: 15:30 poco_nuvoloso Poco Nuvoloso 24 14 53 1015 10 O/NO 27.8
Ieri h: 15:00 poco_nuvoloso Poco Nuvoloso 24 15 57 1015 10 O/NO 20.3
Ieri h: 14:30 nuvoloso Nuvoloso 23 15 60 1015 10 N/NO 22.2
Ieri h: 14:00 molto_nuvoloso Molto Nuvoloso 23 16 64 1015 10 NO 13
Ieri h: 13:30 nuvoloso Nuvoloso 22 16 68 1015 10 N/NO 11.1
Ieri h: 13:00 molto_nuvoloso Molto Nuvoloso 21 16 73 1015 10 O/NO 7.4
Ieri h: 12:30 molto_nuvoloso Molto Nuvoloso 20 16 77 1015 10 O/NO 14.8
Ieri h: 12:00 coperto_pioggia Pioggia Debole 19 16 82 1015 10 NO 16.7
Ieri h: 11:30 coperto_pioggia Pioggia Debole 19 16 82 1015 10 O/NO 13
Ieri h: 11:00 coperto_pioggia Pioggia Debole 19 15 77 1015 10 NO 16.7
Ieri h: 10:30 coperto_pioggia Pioggia Debole 19 15 77 1015 10 N/NO 16.7
Ieri h: 10:00 molto_nuvoloso Molto Nuvoloso 20 15 72 1015 10 O/NO 25.9
Ieri h: 09:30 molto_nuvoloso Molto Nuvoloso 20 15 72 1015 10 O/NO 22.2
Ieri h: 09:00 molto_nuvoloso Molto Nuvoloso 20 15 72 1015 10 O/NO 22.2
Ieri h: 08:30 molto_nuvoloso Molto Nuvoloso 20 15 72 1014 10 O/NO 24
Ieri h: 08:00 molto_nuvoloso Molto Nuvoloso 20 16 77 1014 10 O/NO 14.8
Ieri h: 07:30 molto_nuvoloso Molto Nuvoloso 20 16 77 1014 10 O/NO 22.2
Ieri h: 07:00 molto_nuvoloso Molto Nuvoloso 20 16 77 1013 10 O/NO 18.5
Ieri h: 06:30 molto_nuvoloso Molto Nuvoloso 20 16 77 1013 10 O/NO 22.2
Ieri h: 06:00 sereno Sereno 21 15 68 1012 10 O/NO 22.2